Weather in Stanford

United States     37°25′32″N   122°10′02″W
temp.,
°C
wind,
m/s
gust,
m/s
humid.,
%
clouds,
%
prec.,
mm/h
press.,
hPa
HPBL,
m
7 may, fri
fri723:00+9sw348814 0.0 1019104
02:00+10wsw358824 0.0 1018205
05:00+8wsw359055 0.0 1018166
08:00+11sw12760 0.0 1018287
11:00+15nnw32550 0.0 1018528
14:00+17nw55490 0.0 1018645
17:00+15w46520 0.0 1017370
20:00+11sw33738 0.0 101796
8 may, sat
sat823:00+8ssw33870 0.0 101761
02:00+9sw11800 0.0 101613
05:00+10wnw11730 0.0 101710
08:00+14nnw23510 0.0 1017118
11:00+17nw46342 0.0 1017403
14:00+22wnw5726100 0.0 1015748
17:00+19w46385 0.0 1014262
20:00+12sw34690 0.0 1014111
9 may, sun
sun923:00+10ssw33851 0.0 101474
02:00+9sw22875 0.0 101444
05:00+9sw22875 0.0 101438
08:00+12w12709 0.0 1014116
11:00+17nnw344584 0.0 1013564
14:00+19wnw4442100 0.0 1012621
17:00+16w45535 0.0 1011317
20:00+12sw34785 0.0 1010101
10 may, mon
mon1023:00+9ssw32914 0.0 101047
02:00+10sw22891 0.0 101023
05:00+11sw11800 0.0 101010
08:00+15nnw12600 0.0 1011100
11:00+17nnw23450 0.0 1012406
14:00+22nw45270 0.0 1011971
17:00+22wnw56310 0.0 1010403
20:00+13wsw33640 0.0 101141
11 may, tue
tue1123:00+12sw22670 0.0 101224
02:00+11sw22680 0.0 101116
05:00+11sw01665 0.0 101210
08:00+16ne11515 0.0 101378
11:00+19nnw22380 0.0 1013417
14:00+23wnw33272 0.0 1012866
17:00+21w45350 0.0 1012280
20:00+15w22560 0.0 101442